GW0115 Weather Reports


Display with metric or nautical units.
time (UTC)temp
F
wind
direction
speed
MPH
gust
MPH
rain 1hr
in
rain 24hr
in
rain mn
in
humidity
%
barometer
mb
20260901021603 69 0 0.0 0.0 0.00 0.00 0.00 82 1017.6
20260901020100 69 0 0.0 4.0 0.00 0.00 0.00 81 1017.6
20260901014609 69 0 0.0 0.0 0.00 0.00 0.00 81 1017.4
20260901013105 70 0 0.0 0.0 0.00 0.00 0.00 80 1017.2
20260901011556 71 0 0.0 0.0 0.00 0.00 0.00 80 1017.3
20260901010116 71 0 0.0 1.0 0.00 0.00 0.00 79 1017.4
20260901004600 71 0 0.0 3.0 0.00 0.00 0.00 80 1017.4
20260901003105 71 0 0.0 3.0 0.00 0.00 0.00 81 1017.4
20260901001557 70 0 0.0 0.0 0.00 0.00 0.00 80 1017.2
20260901000056 71 0 0.0 0.0 0.00 0.00 0.00 77 1017.3
20260831234602 71 0 0.0 0.0 0.00 0.00 0.00 77 1017.2
20260831233109 72 0 0.0 0.0 0.00 0.00 0.00 75 1017.3
20260831231558 73 0 0.0 0.0 0.00 0.00 0.00 75 1017.4
20260831230114 73 0 0.0 0.0 0.00 0.00 0.00 74 1017.4
20260831224556 73 0 0.0 0.0 0.00 0.00 0.00 70 1017.6
20260831223111 73 0 0.0 0.0 0.00 0.00 0.00 73 1017.6
20260831221603 73 0 0.0 0.0 0.00 0.00 0.00 73 1017.7
20260831220101 74 0 0.0 0.0 0.00 0.00 0.00 73 1017.8
20260831214607 74 0 0.0 0.0 0.00 0.00 0.00 72 1017.7
20260831213052 74 0 0.0 2.0 0.00 0.00 0.00 68 1017.6
20260831211601 75 0 0.0 1.0 0.00 0.00 0.00 69 1017.6
20260831210056 75 0 0.0 0.0 0.00 0.00 0.00 71 1017.7
20260831204558 75 0 0.0 0.0 0.00 0.00 0.00 70 1017.7
20260831203114 75 0 0.0 0.0 0.00 0.00 0.00 70 1017.8
20260831201557 76 0 0.0 0.0 0.00 0.00 0.00 69 1017.9
20260831200106 76 0 0.0 0.0 0.00 0.00 0.00 67 1018.0
20260831194637 76 0 0.0 0.0 0.00 0.00 0.00 69 1018.1
20260831193101 76 0 0.0 0.0 0.00 0.00 0.00 67 1018.3
20260831191556 75 0 0.0 0.0 0.00 0.00 0.00 65 1018.5
20260831184600 76 0 0.0 0.0 0.00 0.00 0.00 65 1018.7
20260831183106 77 0 0.0 0.0 0.00 0.00 0.00 66 1018.8
20260831181557 77 0 0.0 0.0 0.00 0.00 0.00 67 1019.0
20260831180111 76 0 0.0 0.0 0.00 0.00 0.00 68 1019.3
20260831174558 75 0 0.0 0.0 0.00 0.00 0.00 70 1019.5
20260831173058 74 0 0.0 0.0 0.00 0.00 0.00 69 1019.5
20260831171555 75 0 0.0 0.0 0.00 0.00 0.00 68 1019.8
20260831170059 76 0 0.0 0.0 0.00 0.00 0.00 70 1019.9
20260831164600 76 0 0.0 0.0 0.00 0.00 0.00 72 1019.8
20260831163102 75 0 0.0 0.0 0.00 0.00 0.00 75 1019.9
20260831161554 74 0 0.0 0.0 0.00 0.00 0.00 70 1020.2
20260831160059 73 0 0.0 0.0 0.00 0.00 0.00 70 1020.4
20260831154616 72 0 0.0 0.0 0.00 0.00 0.00 73 1020.4
20260831153058 71 0 0.0 3.0 0.00 0.00 0.00 74 1020.5
20260831151612 70 0 0.0 0.0 0.00 0.00 0.00 76 1020.6
20260831150058 70 0 0.0 0.0 0.00 0.00 0.00 76 1020.5
20260831144605 70 0 0.0 0.0 0.00 0.00 0.00 76 1020.4
20260831143100 70 0 0.0 0.0 0.00 0.00 0.00 76 1020.6
20260831141556 69 0 0.0 0.0 0.00 0.00 0.00 77 1020.7
20260831140058 68 0 0.0 0.0 0.00 0.00 0.00 79 1020.7
20260831134600 68 0 0.0 1.0 0.00 0.00 0.00 79 1020.8
20260831133103 68 0 0.0 1.0 0.00 0.00 0.00 83 1020.8
20260831131559 65 0 0.0 0.0 0.00 0.00 0.00 88 1020.7
20260831130101 64 0 0.0 0.0 0.00 0.00 0.00 89 1020.9
20260831124605 64 0 0.0 0.0 0.00 0.00 0.00 93 1020.8
20260831123056 63 0 0.0 0.0 0.00 0.00 0.00 93 1020.9
20260831121602 62 0 0.0 0.0 0.00 0.00 0.00 94 1020.8
20260831120114 61 0 0.0 0.0 0.00 0.00 0.00 94 1020.7
20260831114558 60 0 0.0 0.0 0.00 0.00 0.00 94 1020.8
20260831113104 59 0 0.0 0.0 0.00 0.00 0.00 95 1020.7
20260831111555 58 0 0.0 0.0 0.00 0.00 0.00 95 1020.5
20260831104612 57 0 0.0 0.0 0.00 0.00 0.00 94 1020.0
20260831103056 57 0 0.0 0.0 0.00 0.00 0.00 94 1019.8
20260831101553 58 0 0.0 0.0 0.00 0.00 0.00 94 1019.8
20260831100122 58 0 0.0 0.0 0.00 0.00 0.00 94 1019.7
20260831094557 58 0 0.0 0.0 0.00 0.00 0.00 94 1019.6
20260831093103 58 0 0.0 0.0 0.00 0.00 0.00 94 1019.5
20260831091600 58 0 0.0 0.0 0.00 0.00 0.00 94 1019.6
20260831090057 58 0 0.0 0.0 0.00 0.00 0.00 94 1019.6
20260831084607 59 0 0.0 0.0 0.00 0.00 0.00 93 1019.5
20260831083104 59 0 0.0 0.0 0.00 0.00 0.00 93 1019.4
20260831081558 60 0 0.0 0.0 0.00 0.00 0.00 93 1019.4
20260831080105 60 0 0.0 0.0 0.00 0.00 0.00 93 1019.5
20260831074558 60 0 0.0 0.0 0.00 0.00 0.00 93 1019.2
20260831073105 61 0 0.0 0.0 0.00 0.00 0.00 92 1019.2
20260831071558 61 0 0.0 0.0 0.00 0.00 0.00 92 1019.2
20260831070113 61 0 0.0 0.0 0.00 0.00 0.00 92 1019.2
20260831064605 62 0 0.0 0.0 0.00 0.00 0.00 91 1018.9
20260831063100 62 0 0.0 0.0 0.00 0.00 0.00 91 1018.8
20260831061557 62 0 0.0 0.0 0.00 0.00 0.00 90 1018.8
20260831060059 63 0 0.0 0.0 0.00 0.00 0.00 90 1018.9
20260831054604 63 0 0.0 0.0 0.00 0.00 0.00 89 1018.9
20260831053058 64 0 0.0 0.0 0.00 0.00 0.00 88 1019.1
20260831051555 64 0 0.0 0.0 0.00 0.00 0.00 88 1019.1
20260831050103 64 0 0.0 0.0 0.00 0.00 0.00 87 1018.9
20260831044602 65 0 0.0 0.0 0.00 0.00 0.00 85 1018.8
20260831043056 66 0 0.0 4.0 0.00 0.00 0.00 83 1018.9
20260831041605 67 0 0.0 6.0 0.00 0.00 0.00 83 1018.7
20260831034557 67 0 0.0 0.0 0.00 0.00 0.00 83 1018.6
20260831033103 66 0 0.0 0.0 0.00 0.00 0.00 84 1018.6
20260831031558 67 0 0.0 0.0 0.00 0.00 0.00 84 1018.7
20260831030106 67 0 0.0 0.0 0.00 0.00 0.00 83 1018.7
20260831024553 67 0 0.0 0.0 0.00 0.00 0.00 82 1018.7
20260831023058 67 0 0.0 0.0 0.00 0.00 0.00 82 1018.5